ENT225A EPKK-LGKR

Flight info

Callsign ENT225A
Flight time 1h 36m
Altitude 37000
Route BABKO DCT NIDOK DCT PARAK/N0455F360 DCT KOTUS/N0457F370 DCT AKIKA DCT LIMJA N732 PITAS
Aircraft B38M/M-SDE1FGHILORVWXY/HB1

Departure

Time 2026-05-01 13:33
Airport Kraków John Paul II International Airport (EPKK)

Arrival

Time 2026-05-01 15:09
Airport Corfu Ioannis Kapodistrias International Airport (LGKR)
Time Latitude Longitude Altitude Speed Heading
2026-05-01 12:55 50.07500 19.80273 802 ft 0 kts 168°
2026-05-01 13:28 50.07473 19.80282 802 ft 9 kts 168°
2026-05-01 13:28 50.07448 19.80341 802 ft 7 kts 67°
2026-05-01 13:29 50.07559 19.80419 802 ft 11 kts 13°
2026-05-01 13:29 50.07734 19.80373 802 ft 15 kts 348°
2026-05-01 13:30 50.07853 19.80332 802 ft 2 kts 347°
2026-05-01 13:31 50.08001 19.80279 802 ft 11 kts 338°
2026-05-01 13:31 50.08012 19.80198 803 ft 4 kts 258°
2026-05-01 13:32 50.07794 19.78621 803 ft 150 kts 257°
2026-05-01 13:33 50.06895 19.72703 2901 ft 200 kts 261°
2026-05-01 13:33 50.06229 19.67996 3746 ft 246 kts 252°
2026-05-01 13:34 50.03789 19.64249 5237 ft 272 kts 198°
2026-05-01 13:34 49.99999 19.62852 6771 ft 284 kts 196°
2026-05-01 13:35 49.96128 19.61215 8461 ft 298 kts 194°
2026-05-01 13:35 49.94103 19.60373 9301 ft 304 kts 194°
2026-05-01 13:35 49.89898 19.58643 10757 ft 324 kts 193°
2026-05-01 13:36 49.87652 19.57713 11139 ft 344 kts 193°
2026-05-01 13:36 49.85281 19.56730 11566 ft 360 kts 193°
2026-05-01 13:36 49.80312 19.54693 12960 ft 374 kts 192°
2026-05-01 13:37 49.77774 19.53661 13650 ft 381 kts 192°
2026-05-01 13:37 49.75226 19.52627 14409 ft 386 kts 192°
2026-05-01 13:37 49.72581 19.51555 15090 ft 390 kts 192°
2026-05-01 13:37 49.69972 19.50499 15792 ft 394 kts 192°
2026-05-01 13:38 49.64609 19.48333 17153 ft 403 kts 192°
2026-05-01 13:38 49.61889 19.47192 17822 ft 408 kts 197°
2026-05-01 13:38 49.59325 19.45242 18463 ft 413 kts 209°
2026-05-01 13:39 49.56814 19.43030 18997 ft 418 kts 208°
2026-05-01 13:39 49.54279 19.40789 19557 ft 422 kts 208°
2026-05-01 13:39 49.51727 19.38523 20081 ft 426 kts 208°
2026-05-01 13:39 49.49146 19.36230 20639 ft 429 kts 208°
2026-05-01 13:40 49.46550 19.33925 21178 ft 432 kts 208°
2026-05-01 13:40 49.43934 19.31605 21697 ft 436 kts 208°
2026-05-01 13:40 49.41325 19.29292 22193 ft 440 kts 208°
2026-05-01 13:40 49.38630 19.26906 22710 ft 444 kts 208°
2026-05-01 13:41 49.35943 19.24532 23212 ft 447 kts 208°
2026-05-01 13:41 49.33269 19.22172 23705 ft 451 kts 208°
2026-05-01 13:41 49.30536 19.19761 24159 ft 454 kts 208°
2026-05-01 13:41 49.27789 19.17343 24581 ft 456 kts 208°
2026-05-01 13:42 49.25031 19.14919 24976 ft 459 kts 208°
2026-05-01 13:42 49.22251 19.12478 25383 ft 462 kts 208°
2026-05-01 13:42 49.19448 19.10018 25757 ft 465 kts 208°
2026-05-01 13:42 49.16635 19.07555 26154 ft 468 kts 208°
2026-05-01 13:43 49.13808 19.05082 26568 ft 469 kts 208°
2026-05-01 13:43 49.10962 19.02596 26969 ft 472 kts 208°
2026-05-01 13:43 49.08104 19.00103 27342 ft 475 kts 208°
2026-05-01 13:43 49.05228 18.97597 27728 ft 477 kts 208°
2026-05-01 13:44 49.02334 18.95079 28090 ft 480 kts 208°
2026-05-01 13:44 48.99462 18.92584 28444 ft 482 kts 208°
2026-05-01 13:44 48.96538 18.90047 28787 ft 485 kts 208°
2026-05-01 13:44 48.93598 18.87498 29156 ft 487 kts 208°
2026-05-01 13:45 48.90552 18.85265 29480 ft 486 kts 195°
2026-05-01 13:45 48.87268 18.84213 29818 ft 480 kts 180°
2026-05-01 13:45 48.83963 18.84383 30026 ft 473 kts 163°
2026-05-01 13:45 48.80792 18.85606 30326 ft 470 kts 158°
2026-05-01 13:46 48.77639 18.87014 30549 ft 473 kts 156°
2026-05-01 13:46 48.74492 18.88495 30846 ft 474 kts 156°
2026-05-01 13:46 48.71378 18.89996 31115 ft 476 kts 156°
2026-05-01 13:46 48.68216 18.91541 31387 ft 478 kts 155°
2026-05-01 13:47 48.65045 18.93097 31638 ft 481 kts 155°
2026-05-01 13:47 48.61852 18.94665 31898 ft 483 kts 155°
2026-05-01 13:47 48.58648 18.96238 32131 ft 486 kts 155°
2026-05-01 13:47 48.55422 18.97819 32393 ft 488 kts 155°
2026-05-01 13:48 48.52192 18.99400 32695 ft 488 kts 155°
2026-05-01 13:48 48.48959 19.00980 33036 ft 488 kts 155°
2026-05-01 13:48 48.45721 19.02560 33380 ft 489 kts 155°
2026-05-01 13:48 48.42488 19.04136 33687 ft 489 kts 155°
2026-05-01 13:49 48.39251 19.05713 34007 ft 489 kts 155°
2026-05-01 13:49 48.36003 19.07292 34288 ft 490 kts 155°
2026-05-01 13:49 48.32761 19.08865 34554 ft 490 kts 155°
2026-05-01 13:49 48.29517 19.10438 34851 ft 490 kts 155°
2026-05-01 13:50 48.26271 19.12010 35127 ft 489 kts 156°
2026-05-01 13:50 48.23025 19.13579 35398 ft 489 kts 156°
2026-05-01 13:50 48.19828 19.15124 35670 ft 488 kts 156°
2026-05-01 13:50 48.16551 19.16704 35945 ft 488 kts 156°
2026-05-01 13:51 48.13363 19.18240 36202 ft 488 kts 156°
2026-05-01 13:51 48.10126 19.19796 36467 ft 488 kts 156°
2026-05-01 13:51 48.06897 19.21348 36715 ft 487 kts 156°
2026-05-01 13:51 48.03674 19.22894 36981 ft 487 kts 156°
2026-05-01 13:52 48.00449 19.24439 37196 ft 487 kts 156°
2026-05-01 13:52 47.97224 19.25982 37331 ft 487 kts 156°
2026-05-01 13:52 47.93996 19.27525 37329 ft 486 kts 156°
2026-05-01 13:53 47.87563 19.30594 37313 ft 485 kts 156°
2026-05-01 13:53 47.77912 19.35182 37328 ft 485 kts 156°
2026-05-01 13:54 47.71512 19.38215 37320 ft 486 kts 156°
2026-05-01 13:54 47.65064 19.41262 37328 ft 486 kts 156°
2026-05-01 13:55 47.58614 19.44302 37324 ft 486 kts 156°
2026-05-01 13:55 47.52158 19.47338 37318 ft 486 kts 156°
2026-05-01 13:56 47.45711 19.50361 37318 ft 486 kts 156°
2026-05-01 13:56 47.39254 19.53382 37330 ft 486 kts 156°
2026-05-01 13:57 47.33882 19.55888 37337 ft 486 kts 156°
2026-05-01 13:57 47.26379 19.59381 37334 ft 486 kts 156°
2026-05-01 13:58 47.19923 19.62378 37328 ft 486 kts 156°
2026-05-01 13:58 47.13455 19.65373 37326 ft 487 kts 156°
2026-05-01 13:59 47.06995 19.68356 37329 ft 486 kts 156°
2026-05-01 13:59 47.00530 19.71334 37323 ft 486 kts 156°
2026-05-01 14:00 46.94077 19.74299 37322 ft 486 kts 156°
2026-05-01 14:00 46.87619 19.77258 37323 ft 486 kts 156°
2026-05-01 14:01 46.81164 19.80210 37324 ft 486 kts 156°
2026-05-01 14:01 46.74742 19.83138 37326 ft 486 kts 156°
2026-05-01 14:02 46.68287 19.86074 37325 ft 485 kts 156°
2026-05-01 14:02 46.61842 19.88998 37329 ft 485 kts 156°
2026-05-01 14:03 46.55391 19.91918 37330 ft 485 kts 156°
2026-05-01 14:03 46.48943 19.94829 37328 ft 485 kts 157°
2026-05-01 14:04 46.42494 19.97734 37326 ft 485 kts 157°
2026-05-01 14:04 46.37140 20.00141 37325 ft 485 kts 157°
2026-05-01 14:05 46.29604 20.03520 37323 ft 485 kts 157°
2026-05-01 14:05 46.23185 20.06391 37321 ft 485 kts 157°
2026-05-01 14:06 46.16640 20.08852 37291 ft 493 kts 172°
2026-05-01 14:06 46.13187 20.08675 37332 ft 499 kts 184°
2026-05-01 14:06 46.09736 20.08095 37297 ft 501 kts 183°
2026-05-01 14:07 46.02811 20.06870 37321 ft 502 kts 184°
2026-05-01 14:08 45.92428 20.04939 37318 ft 501 kts 184°
2026-05-01 14:08 45.85559 20.03663 37317 ft 500 kts 184°
2026-05-01 14:09 45.78615 20.02376 37312 ft 499 kts 184°
2026-05-01 14:09 45.71777 20.01111 37315 ft 499 kts 184°
2026-05-01 14:10 45.64884 19.99840 37313 ft 497 kts 184°
2026-05-01 14:10 45.58026 19.98578 37311 ft 497 kts 185°
2026-05-01 14:11 45.52334 19.97534 37317 ft 496 kts 185°
2026-05-01 14:11 45.42065 19.95654 37311 ft 495 kts 185°
2026-05-01 14:12 45.35227 19.94406 37310 ft 495 kts 185°
2026-05-01 14:12 45.28390 19.93439 37312 ft 493 kts 182°
2026-05-01 14:13 45.21555 19.92595 37308 ft 493 kts 183°
2026-05-01 14:13 45.14720 19.91738 37307 ft 492 kts 183°
2026-05-01 14:14 45.07896 19.90883 37303 ft 492 kts 183°
2026-05-01 14:14 45.01081 19.90031 37304 ft 491 kts 183°
2026-05-01 14:15 44.94275 19.89183 37301 ft 491 kts 183°
2026-05-01 14:15 44.87526 19.88344 37301 ft 490 kts 183°
2026-05-01 14:16 44.80728 19.87500 37304 ft 490 kts 184°
2026-05-01 14:16 44.73937 19.86659 37303 ft 489 kts 184°
2026-05-01 14:17 44.67161 19.85823 37308 ft 489 kts 184°
2026-05-01 14:17 44.60389 19.84988 37304 ft 488 kts 184°
2026-05-01 14:18 44.53653 19.84161 37301 ft 488 kts 184°
2026-05-01 14:18 44.47986 19.83465 37302 ft 488 kts 184°
2026-05-01 14:19 44.40130 19.82504 37300 ft 487 kts 184°
2026-05-01 14:19 44.33374 19.81679 37297 ft 487 kts 184°
2026-05-01 14:20 44.23286 19.80452 37297 ft 486 kts 184°
2026-05-01 14:21 44.16529 19.79632 37291 ft 486 kts 184°
2026-05-01 14:21 44.09788 19.78816 37290 ft 486 kts 184°
2026-05-01 14:22 43.99666 19.77594 37280 ft 485 kts 184°
2026-05-01 14:22 43.92973 19.76788 37281 ft 485 kts 185°
2026-05-01 14:23 43.86234 19.75979 37276 ft 485 kts 185°
2026-05-01 14:23 43.79509 19.75172 37277 ft 484 kts 185°
2026-05-01 14:24 43.72834 19.74374 37272 ft 484 kts 185°
2026-05-01 14:24 43.66123 19.73573 37269 ft 483 kts 185°
2026-05-01 14:25 43.59425 19.72776 37264 ft 483 kts 185°
2026-05-01 14:25 43.52731 19.71981 37264 ft 483 kts 185°
2026-05-01 14:26 43.42685 19.70791 37260 ft 483 kts 185°
2026-05-01 14:27 43.35990 19.70000 37252 ft 482 kts 185°
2026-05-01 14:27 43.29300 19.69212 37251 ft 482 kts 185°
2026-05-01 14:28 43.19265 19.68033 37246 ft 482 kts 185°
2026-05-01 14:28 43.12616 19.67253 37240 ft 482 kts 185°
2026-05-01 14:29 43.05920 19.66470 37233 ft 483 kts 186°
2026-05-01 14:30 42.92529 19.64909 37219 ft 484 kts 186°
2026-05-01 14:31 42.82470 19.63741 37210 ft 484 kts 186°
2026-05-01 14:31 42.75771 19.62965 37208 ft 483 kts 186°
2026-05-01 14:32 42.69071 19.62190 37201 ft 483 kts 187°
2026-05-01 14:32 42.62378 19.61418 37187 ft 482 kts 187°
2026-05-01 14:33 42.55692 19.60649 37188 ft 481 kts 187°
2026-05-01 14:33 42.49012 19.60327 37187 ft 480 kts 183°
2026-05-01 14:34 42.42340 19.60082 37185 ft 479 kts 184°
2026-05-01 14:34 42.35673 19.59817 37164 ft 477 kts 184°
2026-05-01 14:35 42.29044 19.59554 37165 ft 476 kts 184°
2026-05-01 14:35 42.22479 19.59295 37158 ft 474 kts 184°
2026-05-01 14:36 42.15876 19.59034 37156 ft 475 kts 184°
2026-05-01 14:36 42.09272 19.58773 37148 ft 475 kts 184°
2026-05-01 14:37 42.02652 19.58512 37148 ft 476 kts 184°
2026-05-01 14:37 41.96027 19.58252 37144 ft 476 kts 184°
2026-05-01 14:38 41.89410 19.57993 37132 ft 475 kts 184°
2026-05-01 14:38 41.82824 19.57735 37130 ft 475 kts 185°
2026-05-01 14:39 41.76227 19.57478 37126 ft 474 kts 185°
2026-05-01 14:39 41.69626 19.57221 37114 ft 474 kts 185°
2026-05-01 14:40 41.63038 19.56965 37114 ft 473 kts 185°
2026-05-01 14:40 41.56456 19.56710 37106 ft 473 kts 185°
2026-05-01 14:41 41.49875 19.56455 37102 ft 473 kts 185°
2026-05-01 14:41 41.43297 19.56201 37099 ft 472 kts 185°
2026-05-01 14:42 41.36726 19.55948 37100 ft 472 kts 185°
2026-05-01 14:42 41.30201 19.55697 37094 ft 472 kts 186°
2026-05-01 14:42 41.26928 19.55571 36938 ft 469 kts 186°
2026-05-01 14:43 41.23642 19.55445 35882 ft 477 kts 185°
2026-05-01 14:43 41.20306 19.55318 35206 ft 476 kts 185°
2026-05-01 14:43 41.17008 19.55191 34615 ft 474 kts 185°
2026-05-01 14:43 41.13704 19.55065 33753 ft 477 kts 185°
2026-05-01 14:44 41.10378 19.54939 33037 ft 475 kts 185°
2026-05-01 14:44 41.03870 19.54690 32097 ft 461 kts 185°
2026-05-01 14:44 41.00674 19.54569 31555 ft 457 kts 185°
2026-05-01 14:45 40.97506 19.54448 30996 ft 454 kts 185°
2026-05-01 14:45 40.91269 19.54211 29893 ft 448 kts 184°
2026-05-01 14:45 40.88157 19.54093 29292 ft 444 kts 184°
2026-05-01 14:46 40.85081 19.53976 28761 ft 439 kts 184°
2026-05-01 14:46 40.79043 19.53747 27750 ft 430 kts 184°
2026-05-01 14:46 40.76064 19.53635 27244 ft 426 kts 184°
2026-05-01 14:47 40.73114 19.53523 26754 ft 422 kts 184°
2026-05-01 14:47 40.70190 19.53413 26263 ft 418 kts 184°
2026-05-01 14:47 40.67295 19.53303 25786 ft 415 kts 184°
2026-05-01 14:48 40.61557 19.53087 24845 ft 410 kts 184°
2026-05-01 14:48 40.58715 19.52987 24377 ft 407 kts 182°
2026-05-01 14:48 40.53226 19.54769 23415 ft 407 kts 162°
2026-05-01 14:49 40.47960 19.57218 22499 ft 400 kts 161°
2026-05-01 14:49 40.42772 19.59669 21656 ft 393 kts 161°
2026-05-01 14:50 40.39346 19.61290 21094 ft 389 kts 161°
2026-05-01 14:50 40.32761 19.64686 20091 ft 376 kts 170°
2026-05-01 14:51 40.30150 19.65101 19576 ft 376 kts 177°
2026-05-01 14:51 40.24950 19.65598 18291 ft 375 kts 178°
2026-05-01 14:52 40.19786 19.66066 16771 ft 368 kts 178°
2026-05-01 14:52 40.17271 19.66296 16287 ft 357 kts 178°
2026-05-01 14:52 40.12434 19.66740 15533 ft 344 kts 178°
2026-05-01 14:53 40.10084 19.66955 15177 ft 341 kts 178°
2026-05-01 14:53 40.07723 19.67171 14823 ft 339 kts 178°
2026-05-01 14:53 40.05381 19.67385 14472 ft 336 kts 177°
2026-05-01 14:53 40.03056 19.67598 14127 ft 334 kts 178°
2026-05-01 14:54 40.00748 19.67808 13771 ft 331 kts 178°
2026-05-01 14:54 39.98455 19.68018 13381 ft 329 kts 177°
2026-05-01 14:54 39.96181 19.68226 12994 ft 327 kts 177°
2026-05-01 14:54 39.93918 19.68432 12634 ft 324 kts 177°
2026-05-01 14:55 39.91677 19.68636 12283 ft 322 kts 177°
2026-05-01 14:55 39.89452 19.68839 11947 ft 319 kts 177°
2026-05-01 14:55 39.87248 19.69040 11599 ft 317 kts 177°
2026-05-01 14:55 39.85075 19.69238 11269 ft 309 kts 177°
2026-05-01 14:56 39.82952 19.69430 10953 ft 302 kts 176°
2026-05-01 14:56 39.80881 19.69619 10655 ft 294 kts 176°
2026-05-01 14:56 39.78879 19.69800 10533 ft 285 kts 176°
2026-05-01 14:56 39.76909 19.69979 10385 ft 283 kts 176°
2026-05-01 14:57 39.74949 19.70156 10252 ft 282 kts 176°
2026-05-01 14:57 39.71067 19.70508 9896 ft 276 kts 176°
2026-05-01 14:57 39.69154 19.70682 9579 ft 275 kts 176°
2026-05-01 14:58 39.67249 19.70854 9269 ft 273 kts 176°
2026-05-01 14:58 39.65360 19.71025 8970 ft 271 kts 175°
2026-05-01 14:58 39.64113 19.71138 8782 ft 270 kts 175°
2026-05-01 14:58 39.61620 19.71363 8409 ft 267 kts 175°
2026-05-01 14:59 39.59771 19.71530 8125 ft 265 kts 175°
2026-05-01 14:59 39.58554 19.71639 7938 ft 264 kts 175°
2026-05-01 14:59 39.56733 19.71804 7670 ft 262 kts 175°
2026-05-01 14:59 39.54334 19.72020 7307 ft 260 kts 175°
2026-05-01 15:00 39.50755 19.72343 6768 ft 256 kts 174°
2026-05-01 15:00 39.48985 19.72502 6498 ft 254 kts 174°
2026-05-01 15:00 39.47816 19.72607 6306 ft 253 kts 174°
2026-05-01 15:01 39.46045 19.72766 6037 ft 251 kts 174°
2026-05-01 15:01 39.44526 19.72902 5792 ft 249 kts 174°
2026-05-01 15:01 39.42823 19.73072 5525 ft 247 kts 169°
2026-05-01 15:01 39.41269 19.73891 5236 ft 240 kts 139°
2026-05-01 15:02 39.40268 19.75559 4969 ft 233 kts 111°
2026-05-01 15:02 39.39989 19.76911 4793 ft 229 kts 95°
2026-05-01 15:02 39.39916 19.79611 4461 ft 225 kts 90°
2026-05-01 15:02 39.39904 19.81614 4274 ft 218 kts 89°
2026-05-01 15:03 39.39905 19.83503 4168 ft 203 kts 88°
2026-05-01 15:03 39.39914 19.85277 4051 ft 191 kts 88°
2026-05-01 15:03 39.39931 19.86942 3943 ft 179 kts 85°
2026-05-01 15:03 39.40179 19.88499 3830 ft 176 kts 73°
2026-05-01 15:04 39.40514 19.90026 3743 ft 177 kts 73°
2026-05-01 15:04 39.40853 19.91552 3662 ft 177 kts 72°
2026-05-01 15:04 39.41196 19.93083 3562 ft 177 kts 72°
2026-05-01 15:04 39.41540 19.94614 3461 ft 177 kts 72°
2026-05-01 15:05 39.42028 19.96062 3257 ft 176 kts 48°
2026-05-01 15:05 39.43037 19.96893 3038 ft 173 kts 12°
2026-05-01 15:05 39.44227 19.96899 2887 ft 172 kts 348°
2026-05-01 15:05 39.45399 19.96538 2707 ft 173 kts 344°
2026-05-01 15:06 39.46562 19.96137 2544 ft 173 kts 344°
2026-05-01 15:06 39.47715 19.95729 2360 ft 169 kts 343°
2026-05-01 15:06 39.48788 19.95359 2169 ft 151 kts 343°
2026-05-01 15:06 39.49775 19.95008 1969 ft 145 kts 341°
2026-05-01 15:07 39.50796 19.94623 1759 ft 163 kts 342°
2026-05-01 15:07 39.51905 19.94173 1674 ft 170 kts 338°
2026-05-01 15:07 39.53002 19.93600 1363 ft 165 kts 333°
2026-05-01 15:07 39.53995 19.92997 1031 ft 152 kts 334°
2026-05-01 15:08 39.54943 19.92590 793 ft 136 kts 345°
2026-05-01 15:08 39.55904 19.92383 518 ft 141 kts 347°
2026-05-01 15:08 39.56882 19.92067 454 ft 149 kts 344°
2026-05-01 15:08 39.57906 19.91816 327 ft 149 kts 346°
2026-05-01 15:09 39.58900 19.91537 143 ft 144 kts 346°
2026-05-01 15:09 39.59862 19.91298 27 ft 132 kts 345°
2026-05-01 15:09 39.60503 19.91128 24 ft 44 kts 348°
2026-05-01 15:09 39.60811 19.91052 23 ft 42 kts 348°
2026-05-01 15:10 39.60996 19.91008 22 ft 13 kts
2026-05-01 15:10 39.61052 19.91075 24 ft 0 kts 60°
2026-05-01 15:11 39.61027 19.91140 21 ft 5 kts 171°
2026-05-01 15:11 39.61022 19.91142 21 ft 3 kts 158°
2026-05-01 15:12 39.61013 19.91167 21 ft 4 kts 95°
2026-05-01 15:12 39.61021 19.91228 22 ft 0 kts 79°